Home > Weather > Santa Barbara > Past weeks

Flag for USA Past Weather in Santa Barbara, California, USA — Yesterday and Last 2 Weeks

Now
62 °F

Clear.


Feels Like: 62 °F
Forecast: 59 / 74 °F
Wind: No wind

Location: Santa Barbara Municipal Airport

Current Time: Jul 24, 2016 at 1:49:23 AM

Latest Report: Jul 24, 2016 at 12:53 AM


Visibility: 8 mi

Pressure: 29.81 "Hg

Humidity: 93%

Dew Point: 60 °F

Location of Santa BarbaraLocation

Past Weather in Santa Barbara — Graph

°F

Santa Barbara Temperature Yesterday

Maximum temperature yesterday: 93 °F (at 12:53 AM)
Minimum temperature yesterday: 64 °F (at 5:53 AM)
Average temperature yesterday: 72 °F

High & Low Weather Summary for the Past Weeks

 TemperatureHumidityPressure
High93 °F (Jul 23, 12:53 AM)100% (Jul 10, 5:53 AM)30.06 "Hg (Jul 10, 5:53 AM)
Low55 °F (Jul 13, 5:53 AM)13% (Jul 23, 12:53 AM)29.76 "Hg (Jul 23, 3:53 PM)
Average66 °F81%29.93 "Hg
* Reported Jul 8 11:53 PM — Jul 23 11:53 PM, Santa Barbara, Weather by CustomWeather, © 2016

Note: Actual official high and low records may vary slightly from our data, if they occured in-between our weather recording intervals... More about our weather records

Advertising

Santa Barbara Weather History for the Previous 24 Hours

Scroll right to see more
 ConditionsComfort  
Time TempWeatherWind HumidityBarometerVisibility
11:53 PM
Sat, Jul 23
64 °FFog.No wind94%29.83 "Hg6 mi
10:53 PM66 °FFog.No wind90%29.83 "Hg6 mi
9:53 PM65 °FFog.3 mph91%29.82 "Hg6 mi
8:53 PM66 °FFog.5 mph87%29.80 "Hg6 mi
7:53 PM67 °FSunny.7 mph81%29.78 "Hg5 mi
6:53 PM68 °FSunny.6 mph78%29.77 "Hg6 mi
5:53 PM70 °FSunny.9 mph76%29.77 "Hg6 mi
4:53 PM73 °FSunny.9 mph66%29.76 "Hg7 mi
3:53 PM76 °FSunny.6 mph62%29.76 "Hg8 mi
2:53 PM75 °FSunny.9 mph71%29.78 "Hg8 mi
1:53 PM76 °FSunny.9 mph58%29.78 "Hg9 mi
12:53 PM79 °FSunny.10 mph42%29.80 "Hg10 mi
11:53 AM73 °FSunny.5 mph66%29.82 "Hg8 mi
10:53 AM72 °FSunny.10 mph68%29.82 "Hg8 mi
9:53 AM73 °FSunny.12 mph69%29.82 "Hg7 mi
8:53 AM73 °FSunny.10 mph71%29.81 "Hg7 mi
7:53 AM72 °FSunny.3 mph66%29.80 "Hg8 mi
6:53 AM64 °FClear.No wind84%29.78 "Hg9 mi
5:53 AM64 °FClear.3 mph84%29.78 "Hg8 mi
4:53 AM66 °FClear.No wind78%29.77 "Hg9 mi
3:53 AM66 °FClear.No wind90%29.77 "Hg7 mi
2:53 AM68 °FClear.8 mph87%29.77 "Hg7 mi
1:53 AM88 °FClear.6 mph14%29.78 "Hg10 mi
Weather by CustomWeather, © 2016

See weather overviewHow to use our weather pages